Weather History for KOZW - January, 2013

Change the Weather History Date:

Sunday, January 20, 2013

  Actual Average Record
Temperature  
Mean Temperature 28 °F -  
Max Temperature 42 °F 27 °F 51 °F (2006)
Min Temperature 15 °F 14 °F 0 °F (2009)
Degree Days  
Heating Degree Days 36    
Moisture  
Dew Point 5 °F    
Average Humidity 51    
Maximum Humidity 61    
Minimum Humidity 36    
Precipitation  
Precipitation 0.00 in - - ()
Sea Level Pressure  
Sea Level Pressure 30.00 in    
Wind  
Wind Speed 21 mph (West)    
Max Wind Speed 32 mph    
Max Gust Speed 46 mph    
Visibility 10 miles    
Events Snow    
Averages and records for this station are not official NWS values.
T = Trace of Precipitation, MM = Missing Value Source: NWS Daily Summary

Daily Weather History Graph

Daily Weather History Graph

Search for Another Location

Airport or City:

Trip Planner

Search our weather history database for the weather conditions in past years. The results will help you decide how hot, cold, wet, or windy it might be!

Date:

Astronomy

Jan. 20, 2013 Rise Set
Actual Time 8:00 AM EST 5:34 PM EST
Civil Twilight 7:29 AM EST 6:05 PM EST
Nautical Twilight 6:54 AM EST 6:39 PM EST
Astronomical Twilight 6:21 AM EST 7:13 PM EST
Moon 12:35 PM EST (1/20) 2:30 AM EST (1/20)
Length of Visible Light 10h 35m
Length of Day
9h 34m
Waxing Gibbous, 66% of the Moon is Illuminated
Jan 20
Waxing Gibbous
Jan 26
Full
Feb 3
Last Quarter
Feb 10
New
Feb 17
First Quarter

Hourly Weather History & Observations

Time (EST) Temp. Windchill Dew Point Humidity Pressure Visibility Wind Dir Wind Speed Gust Speed Precip Events Conditions
12:15 AM 42.8 °F 33.1 °F 25.9 °F 51% 29.54 in 10.0 mi West 25.3 mph 38.0 mph N/A   Mostly Cloudy
12:34 AM 41.9 °F 32.3 °F 22.3 °F 46% 29.54 in 10.0 mi West 23.0 mph 40.3 mph N/A   Overcast
12:54 AM 40.5 °F 28.9 °F 17.8 °F 40% 29.55 in 10.0 mi WSW 31.1 mph 46.0 mph N/A   Mostly Cloudy
1:15 AM 39.2 °F 28.3 °F 15.4 °F 38% 29.56 in 10.0 mi West 25.3 mph 43.7 mph N/A   Clear
1:34 AM 38.5 °F 26.0 °F 13.3 °F 36% 29.57 in 10.0 mi West 32.2 mph 46.0 mph N/A   Mostly Cloudy
1:55 AM 36.9 °F 24.4 °F 12.9 °F 37% 29.59 in 10.0 mi West 28.8 mph 41.4 mph N/A   Mostly Cloudy
3:34 AM 25.3 °F 8.6 °F 9.9 °F 52% 29.76 in 10.0 mi West 29.9 mph 41.4 mph N/A   Mostly Cloudy
3:55 AM 24.3 °F 7.4 °F 10.9 °F 57% 29.78 in 10.0 mi West 28.8 mph 40.3 mph N/A   Overcast
4:15 AM 23.5 °F 7.6 °F 7.7 °F 51% 29.79 in 10.0 mi West 24.2 mph 36.8 mph N/A   Overcast
4:34 AM 23.0 °F 8.0 °F 7.0 °F 50% 29.81 in 10.0 mi West 20.7 mph 46.0 mph N/A   Overcast
4:55 AM 21.9 °F 3.9 °F 5.7 °F 50% 29.82 in 10.0 mi WNW 29.9 mph 40.3 mph N/A   Mostly Cloudy
5:14 AM 21.2 °F 5.6 °F 6.1 °F 52% 29.83 in 10.0 mi West 20.7 mph 35.7 mph N/A   Scattered Clouds
5:34 AM 20.7 °F 4.5 °F 6.6 °F 55% 29.84 in 10.0 mi West 21.9 mph 31.1 mph N/A   Mostly Cloudy
5:55 AM 20.3 °F 3.0 °F 4.1 °F 50% 29.86 in 10.0 mi West 25.3 mph 36.8 mph N/A   Overcast
6:14 AM 20.1 °F 3.8 °F 4.1 °F 50% 29.88 in 10.0 mi West 21.9 mph 35.7 mph N/A   Overcast
6:34 AM 19.6 °F 4.7 °F 5.9 °F 55% 29.91 in 7.0 mi WNW 17.3 mph 33.4 mph N/A Snow Light Snow
7:14 AM 18.5 °F 1.6 °F 3.9 °F 53% 29.95 in 10.0 mi West 21.9 mph 32.2 mph N/A   Overcast
7:34 AM 18.3 °F 2.6 °F 2.1 °F 49% 29.98 in 10.0 mi West 18.4 mph 32.2 mph N/A   Overcast
8:14 AM 16.7 °F -0.3 °F 3.4 °F 56% 30.01 in 10.0 mi WNW 20.7 mph 31.1 mph N/A   Overcast
8:34 AM 16.2 °F -1.0 °F 0.9 °F 51% 30.03 in 10.0 mi WNW 20.7 mph 28.8 mph N/A   Mostly Cloudy
8:55 AM 17.1 °F -0.3 °F 2.1 °F 52% 30.05 in 10.0 mi West 21.9 mph 27.6 mph N/A   Clear
9:14 AM 17.2 °F 0.4 °F 2.8 °F 53% 30.06 in 10.0 mi West 20.7 mph 27.6 mph N/A   Clear
9:34 AM 18.1 °F 0.4 °F 2.3 °F 50% 30.07 in 10.0 mi West 24.2 mph 32.2 mph N/A   Scattered Clouds
10:35 AM 19.6 °F 3.1 °F 3.9 °F 51% 30.09 in 10.0 mi WNW 21.9 mph 26.5 mph N/A   Scattered Clouds
10:54 AM 19.6 °F 5.2 °F 4.3 °F 52% 30.10 in 10.0 mi WNW 16.1 mph 25.3 mph N/A   Mostly Cloudy
11:14 AM 19.8 °F 5.4 °F 4.3 °F 51% 30.10 in 10.0 mi WNW 16.1 mph 24.2 mph N/A   Overcast
11:35 AM 19.4 °F 4.5 °F 4.1 °F 52% 30.11 in 10.0 mi West 17.3 mph 25.3 mph N/A   Overcast
11:54 AM 20.1 °F 6.4 °F 4.1 °F 50% 30.11 in 10.0 mi West 15.0 mph 20.7 mph N/A   Overcast
12:15 PM 19.4 °F 5.5 °F 4.3 °F 52% 30.11 in 10.0 mi West 15.0 mph 24.2 mph N/A   Overcast
12:35 PM 20.5 °F 5.0 °F 4.5 °F 50% 30.10 in 10.0 mi WNW 19.6 mph 24.2 mph N/A   Overcast
12:54 PM 20.3 °F 6.1 °F 2.7 °F 47% 30.10 in 10.0 mi West 16.1 mph 21.9 mph N/A   Overcast
1:15 PM 21.2 °F 6.0 °F 3.4 °F 46% 30.09 in 10.0 mi West 19.6 mph - N/A   Overcast
1:34 PM 21.0 °F 7.1 °F 3.4 °F 47% 30.09 in 10.0 mi West 16.1 mph 24.2 mph N/A   Overcast
1:54 PM 21.0 °F 6.6 °F 3.9 °F 48% 30.09 in 10.0 mi West 17.3 mph 23.0 mph N/A   Overcast
2:15 PM 20.3 °F 5.2 °F 3.6 °F 48% 30.10 in 10.0 mi WNW 18.4 mph 27.6 mph N/A   Overcast
2:34 PM 20.1 °F 6.4 °F 3.2 °F 48% 30.10 in 10.0 mi West 15.0 mph 24.2 mph N/A   Overcast
2:54 PM 20.3 °F 5.7 °F 3.4 °F 48% 30.10 in 10.0 mi West 17.3 mph 24.2 mph N/A   Overcast
3:34 PM 20.1 °F 4.6 °F 4.6 °F 51% 30.11 in 10.0 mi West 19.6 mph 25.3 mph N/A   Overcast
3:55 PM 19.9 °F 4.8 °F 4.1 °F 50% 30.12 in 10.0 mi West 18.4 mph 25.3 mph N/A   Overcast
4:14 PM 20.1 °F 5.4 °F 5.5 °F 53% 30.11 in 10.0 mi West 17.3 mph - N/A   Overcast
5:14 PM 19.0 °F 5.0 °F 3.7 °F 51% 30.12 in 10.0 mi WNW 15.0 mph 18.4 mph N/A   Overcast
5:35 PM 18.5 °F 3.8 °F 3.2 °F 51% 30.12 in 10.0 mi West 16.1 mph 21.9 mph N/A   Overcast
5:54 PM 18.5 °F 6.8 °F 3.6 °F 52% 30.13 in 10.0 mi WNW 10.4 mph - N/A   Overcast
6:14 PM 18.5 °F 4.3 °F 4.1 °F 54% 30.13 in 10.0 mi WNW 15.0 mph - N/A   Overcast
6:34 PM 18.3 °F 7.3 °F 4.3 °F 54% 30.13 in 10.0 mi West 9.2 mph 19.6 mph N/A   Overcast
6:54 PM 18.0 °F 6.1 °F 3.9 °F 54% 30.14 in 10.0 mi West 10.4 mph - N/A   Overcast
7:15 PM 17.6 °F 4.3 °F 3.4 °F 54% 30.14 in 10.0 mi West 12.7 mph 20.7 mph N/A   Overcast
7:54 PM 17.6 °F 6.4 °F 4.1 °F 56% 30.14 in 10.0 mi WNW 9.2 mph - N/A   Overcast
8:15 PM 17.2 °F 4.5 °F 4.8 °F 58% 30.14 in 10.0 mi West 11.5 mph 18.4 mph N/A   Overcast
8:34 PM 16.9 °F 4.8 °F 3.6 °F 56% 30.14 in 10.0 mi West 10.4 mph 17.3 mph N/A   Overcast
8:55 PM 16.7 °F 3.8 °F 5.0 °F 60% 30.13 in 10.0 mi WNW 11.5 mph - N/A   Overcast
9:15 PM 16.5 °F 4.3 °F 5.0 °F 61% 30.13 in 10.0 mi West 10.4 mph - N/A   Overcast
9:34 PM 16.5 °F 5.1 °F 3.0 °F 55% 30.13 in 10.0 mi WNW 9.2 mph - N/A   Overcast
9:55 PM 16.2 °F 3.2 °F 3.0 °F 56% 30.14 in 10.0 mi WNW 11.5 mph - N/A   Overcast
10:15 PM 15.8 °F 2.1 °F 2.8 °F 57% 30.14 in 10.0 mi WNW 12.7 mph - N/A   Overcast
10:34 PM 15.8 °F 3.4 °F 2.8 °F 57% 30.13 in 10.0 mi NW 10.4 mph - N/A   Overcast
10:55 PM 15.6 °F 7.0 °F 2.1 °F 55% 30.13 in 10.0 mi NW 5.8 mph - N/A   Overcast
11:15 PM 15.6 °F 5.9 °F 2.1 °F 55% 30.13 in 10.0 mi West 6.9 mph - N/A   Overcast
11:34 PM 15.6 °F 7.0 °F 2.3 °F 56% 30.12 in 10.0 mi WNW 5.8 mph - N/A   Overcast
11:55 PM 15.8 °F 8.6 °F 2.3 °F 55% 30.11 in 10.0 mi NW 4.6 mph - N/A   Overcast